EHI
0 0 0 0 0 0 0 0 0 0 0 0 0 0 0 0 0 0 0 0 0 0 0 0 0 0 0 0 0 0 0 0 0 0 0 0 0 0 0 0 0 0 0
0 0 0 0 0 0 0 0 0 0 0 0 0 0 0 0 0 0 0 0 0 0 0 0 0 0 0 0 0 0 0 0 0 0 0 0 0 0 0 0 0 0 0
0 0 0 0 0 0 0 0 0 0 0 0 0 0 0 0 0 0 0 0 0 0 0 0 0 0 0 0 0 0 0 0 0 0 0 0 0 0 0 0 0 0 0
0 0 0 0 0 0 0 0 0 0 0 0 0 0 0 0 0 0 0 0 0 0 0 0 0 0 0 0 0 0 0 0 0 0 0 0 0 0 0 0 0 0 0
0 0 0 0 0 0 0 0 0 0 0 0 0 0 0 0 0 0 0 0 0 0 0 0 0 0 0 0 0 0 0 0 0 0 0 0 0 0 0 0 0 0 0
0 0 0 0 0 0 0 0 0 0 0 0 0 0 0 0 0 0 0 0 0 0 0 0 0 0 0 0 0 0 0 0 0 0 0 0 0 0 0 0 0 0 0
0 0 0 0 0 0 0 0 0 0 0 0 0 0 0 0 0 0 0 0 0 0 0 0 0 0 0 0 0 0 0 0 0 0 0 0 0 0 0 0 0 0 0
0 0 0 0 0 0 0 0 0 0 0 0 0 0 0 0 0 0 0 0 0 0 0 0 0 0 0 0 0 0 0 0 0 0 0 0 0 0 0 0 0 0 0
0 0 0 0 0 0 0 0 0 0 0 0 0 0 0 0 0 0 0 0 0 0 0 0 0 0 0 0 0 0 0 0 0 0 0 0 0 0 0 0 0 0 0
0 0 0 0 0 0 0 0 0 0 0 0 0 0 0 0 0 0 0 0 0 0 0 0 0 0 0 0 0 0 0 0 0 0 0 0 0 0 0 0 0 0 0
0 0 0 0 0 0 0 0 0 0 0 0 0 0 0 0 0 0 0 0 0 0 0 0 0 0 0 0 0 0 0 0 0 0 0 0 0 0 0 0 0 0 0
0 0 0 0 0 0 0 0 0 0 0 0 0 0 0 0 0 0 0 0 0 0 0 0 0 0 0 0 0 0 0 0 0 0 0 0 0 0 0 0 0 0 0
0 0 0 0 0 0 0 0 0 0 0 0 0 0 0 0 0 0 0 0 0 0 0 0 0 0 0 0 0 0 0 0 0 0 0 0 0 0 0 0 0 0 0
0 0 0 0 0 0 0 0 0 0 0 0 0 0 0 0 0 0 0 0 0 0 0 0 0 0 0 0 0 0 0 0 0 0 0 0 0 0 0 0 0 0 0
0 0 0 0 0 0 0 0 0 0 0 0 0 0 0 0 0 0 0 0 0 0 0 0 0 0 0 0 0 0 0 0 0 0 0 0 0 0 0 0 0 0 0
0 0 0 0 0 0 0 0 0 0 0 0 0 0 0 0 0 0 0 0 0 0 0 0 0 0 0 0 0 0 0 0 0 0 0 0 0 0 0 0 0 0 0
0 0 0 0 0 0 0 0 0 0 0 0 0 0 0 0 0 0 0 0 0 0 0 0 0 0 0 0 0 0 0 0 0 0 0 0 0 0 0 0 0 0 0
0 0 0 0 0 0 0 0 0 0 0 0 0 0 0 0 0 0 0 0 0 0 0 0 0 0 0 0 0 0 0 0 0 0 0 0 0 0 0 0 0 0 0
0 0 0 0 0 0 0 0 0 0 0 0 0 0 0 0 0 0 0 0 0 0 0 0 0 0 0 0 0 0 0 0 0 0 0 0 0 0 0 0 0 0 0
0 0 0 0 0 0 0 0 0 0 0 0 0 0 0 0 0 0 0 0 0 0 0 0 0 0 0 0 0 0 0 0 0 0 0 0 0 0 0 0 0 0 0
0 0 0 0 0 0 0 0 0 0 0 0 0 0 0 0 0 0 0 0 0 0 0 0 0 0 0 0 0 0 0 0 0 0 0 0 0 0 0 0 0 0 0
0 0 0 0 0 0 0 0 0 0 0 0 0 0 0 0 0 0 0 0 0 0 0 0 0 0 0 0 0 0 0 0 0 0 0 0 0 0 0 0 0 0 0
0 0 0 0 0 0 0 0 0 0 0 0 0 0 0 0 0 0 0 0 0 0 0 0 0 0 0 0 0 0 0 0 0 0 0 0 0 0 0 0 0 0 0
0 0 0 0 0 0 0 0 0 0 0 0 0 0 0 0 0 0 0 0 0 0 0 0 0 0 0 0 0 0 0 0 0 0 0 0 0 0 0 0 0 0 0
0 0 0 0 0 0 0 0 0 0 0 0 0 0 0 0 0 0 0 0 0 0 0 0 0 0 0 0 0 0 0 0 0 0 0 0 0 0 0 0 0 0 0
0 0 0 0 0 0 0 0 0 0 0 0 0 0 0 0 0 0 0 0 0 0 0 0 0 0 0 0 0 0 0 0 0 0 0 0 0 0 0 0 0 0 0
Wind_Speed
1 1 1 1 1 1 1 2 2 2 2 2 2 2 2 2 2 1 1 2 3 4 5 5 6 6 6 6 5 5 5 5 5 5 4 4 5 5 5 6 6 6 6
0 1 1 1 1 1 1 2 2 2 2 2 2 2 2 2 2 2 1 2 3 4 5 5 6 6 7 6 6 6 6 6 5 5 5 5 5 6 6 6 6 6 7
1 1 1 1 1 2 2 2 2 2 2 2 2 2 2 2 2 2 2 1 1 2 4 5 6 6 7 7 6 6 6 6 6 6 6 6 6 6 6 7 7 7 7
1 1 1 1 1 1 1 2 2 2 1 2 2 2 2 2 2 2 2 1 1 1 2 4 6 7 7 7 7 7 7 7 7 7 7 6 6 6 7 7 7 7 7
1 1 1 1 1 1 1 2 1 1 2 2 2 2 2 2 2 2 2 1 1 1 1 2 4 6 7 8 8 8 8 7 8 7 7 7 7 7 7 7 7 8 8
1 1 1 2 1 1 1 1 2 2 1 2 3 3 2 3 2 2 2 1 1 1 1 1 1 3 6 7 7 8 8 8 8 8 7 7 7 7 7 7 8 8 8
1 1 2 2 2 1 2 2 2 1 1 1 1 2 3 3 2 2 1 1 1 1 1 1 1 1 2 5 6 8 9 9 8 8 8 8 8 7 7 7 7 8 9
2 2 2 2 2 2 2 2 1 1 1 1 1 1 2 2 1 2 1 1 1 1 1 1 1 1 1 1 3 7 8 9 9 8 8 8 8 8 7 7 7 8 8
2 2 2 2 2 2 2 2 2 1 2 2 1 1 1 2 2 2 2 2 2 1 1 1 1 1 1 1 2 4 7 8 9 8 8 9 8 8 8 7 7 7 8
1 2 2 2 2 1 1 2 2 2 2 2 2 1 1 1 1 3 3 2 2 2 2 2 2 2 1 1 2 4 6 7 8 8 9 9 8 8 8 7 8 7 7
1 2 2 2 2 1 2 2 2 2 2 2 2 1 2 2 2 2 4 3 2 2 2 2 2 1 1 1 1 3 7 7 8 8 8 8 8 8 8 8 8 7 8
1 2 2 2 2 2 2 2 2 2 2 3 2 2 2 2 2 2 2 3 3 3 3 2 2 1 1 1 2 5 7 8 7 7 7 7 7 7 8 8 8 8 7
2 2 3 2 2 2 2 2 2 2 3 3 3 2 2 2 1 2 1 2 3 3 3 2 2 1 1 1 1 5 6 8 7 7 6 7 7 7 7 7 8 8 8
2 2 2 2 2 2 2 1 1 2 3 3 2 2 2 2 2 2 2 1 3 3 2 3 1 1 0 0 2 5 3 7 7 6 6 6 6 6 7 7 8 7 8
2 2 2 2 2 2 2 2 1 2 2 2 2 2 2 2 2 2 1 2 2 3 3 2 1 1 1 1 3 2 2 5 7 6 6 5 6 6 6 6 7 7 8
2 2 2 2 2 2 2 2 1 2 2 2 2 2 2 2 1 1 2 2 2 3 3 2 2 2 2 2 4 3 2 5 6 6 6 5 6 6 6 6 7 7 7
2 2 3 2 2 2 2 1 2 2 2 2 2 2 3 2 2 2 2 2 2 2 3 3 2 2 2 2 3 2 2 1 2 5 5 5 6 6 6 6 6 7 7
2 2 2 2 2 2 2 2 3 3 2 2 2 2 2 2 2 2 2 2 2 2 2 4 3 2 2 2 2 2 2 2 2 4 5 5 6 6 6 6 6 6 7
2 2 2 3 2 2 2 2 2 3 2 3 2 2 3 3 2 2 2 2 2 2 2 2 3 2 2 2 2 2 2 2 3 3 4 4 5 6 6 6 6 7 7
2 2 3 3 2 2 2 2 2 2 2 2 2 2 3 3 3 3 2 2 2 2 1 2 2 2 2 2 1 1 2 2 2 3 4 4 5 6 6 7 6 6 6
3 3 2 2 2 2 2 2 2 2 2 2 2 2 2 2 3 3 2 1 1 1 1 2 2 2 2 1 2 2 2 2 2 1 2 2 2 2 3 5 5 6 6
3 2 2 2 2 2 3 3 2 2 2 2 3 2 2 3 3 4 3 3 2 2 2 2 2 3 2 2 1 1 1 1 2 1 2 3 2 2 2 2 5 7 6
2 2 2 2 2 3 3 3 3 2 2 2 2 2 2 1 2 1 2 3 3 4 4 3 3 3 3 2 2 2 2 2 2 2 1 2 2 2 3 3 6 7 7
2 2 2 2 2 2 3 3 3 2 1 2 1 1 1 1 1 0 0 1 1 2 3 2 3 3 3 3 3 3 2 1 1 1 1 2 2 2 3 3 5 6 6
2 2 2 2 2 2 3 2 2 1 1 1 1 1 1 1 1 1 0 1 1 2 3 3 3 3 4 4 2 1 1 0 2 2 1 0 1 3 3 2 3 6 6
2 2 2 2 2 2 2 2 1 1 1 1 1 1 1 1 1 2 1 1 2 2 2 2 2 3 2 1 1 1 2 1 1 2 1 0 1 2 3 2 2 3 4
Wind_Direction
242 257 256 263 282 289 280 283 289 290 278 278 282 286 293 295 289 278 246 266 274 283 282 287 292 297 296 291 289 296 294 296 300 300 305 306 309 310 312 314 316 316 308
250 269 260 283 290 290 278 276 281 284 269 267 280 285 285 292 289 279 241 248 261 278 277 285 290 295 300 299 291 293 297 296 297 307 313 305 300 299 299 300 303 306 306
260 275 280 279 286 291 288 291 289 295 283 283 283 285 283 282 279 273 266 232 237 274 285 293 295 295 296 297 298 293 297 295 298 300 300 303 300 296 295 295 296 299 301
279 280 277 276 283 291 290 289 290 298 290 291 291 291 287 275 273 264 260 242 241 251 280 293 298 297 297 296 300 300 299 296 297 297 295 293 293 294 291 292 294 295 296
263 269 265 270 284 289 281 289 301 299 297 300 292 281 279 268 263 257 251 233 229 221 222 288 295 299 300 301 302 299 301 302 301 298 295 292 290 291 294 292 290 291 294
249 265 263 271 273 267 272 273 274 281 271 273 289 290 278 266 254 243 252 242 233 219 225 252 269 295 303 306 309 306 302 302 305 301 294 290 290 291 292 296 295 293 292
246 254 268 275 268 252 250 252 256 274 286 284 296 302 279 256 232 235 249 262 263 237 235 222 237 259 288 303 306 308 309 306 304 306 301 294 292 292 293 294 298 301 294
247 250 244 258 264 255 250 245 255 252 265 253 215 288 300 307 291 255 232 240 252 254 265 265 234 265 283 284 305 310 311 315 312 310 309 304 299 298 295 296 298 304 305
259 254 251 258 261 251 225 216 224 227 248 258 226 195 212 270 309 281 250 238 242 245 256 257 244 253 275 277 278 306 311 312 309 307 307 302 300 299 297 299 301 302 310
261 259 263 267 265 248 217 224 215 232 241 245 259 251 241 220 238 302 288 262 250 253 259 277 262 246 248 265 301 312 316 314 310 308 309 307 301 302 301 301 304 305 305
251 267 266 261 262 244 220 230 235 246 249 241 240 248 259 264 240 228 276 294 301 273 263 268 262 251 251 248 271 302 314 314 311 311 312 313 309 306 310 306 306 307 309
257 249 259 252 254 243 221 225 230 237 255 255 247 240 227 227 224 222 251 285 291 291 291 277 256 244 244 239 293 310 315 313 313 314 315 318 319 316 316 317 314 310 309
275 260 258 253 252 247 233 228 229 236 250 251 245 244 239 241 237 233 244 276 293 294 286 277 251 231 254 234 270 307 312 316 317 318 316 318 322 322 323 322 319 317 313
261 267 262 261 262 252 245 232 239 236 243 234 239 244 242 245 237 226 224 245 293 292 281 273 288 244 271 272 285 312 304 313 313 318 320 318 323 326 327 326 321 320 325
275 268 263 263 264 260 244 236 239 257 247 224 226 236 241 241 237 244 237 216 230 277 282 265 298 300 323 304 297 300 289 307 315 317 320 323 325 326 325 326 323 322 322
278 276 277 268 261 250 239 235 242 257 237 234 225 230 243 242 233 234 236 244 237 248 272 282 283 291 301 306 305 306 288 312 317 316 317 319 321 323 322 319 322 323 323
275 271 269 268 263 258 248 239 241 251 229 237 248 239 242 246 234 227 230 238 246 242 262 286 282 282 291 295 304 303 300 288 301 311 314 323 324 325 326 325 325 326 325
283 275 273 267 263 256 248 245 244 245 222 228 239 244 253 252 243 234 232 236 240 241 246 274 286 284 284 287 300 307 320 327 318 319 326 328 328 329 331 331 332 332 329
290 286 276 266 262 254 246 247 245 251 229 230 234 237 250 247 244 239 235 237 242 253 249 256 278 285 286 291 310 322 327 324 325 324 331 338 337 334 330 329 329 327 326
281 275 268 268 264 257 245 247 246 250 235 234 236 235 241 243 246 240 239 237 239 242 246 250 268 280 285 293 304 310 316 325 327 332 334 331 327 328 329 325 325 325 326
279 269 271 272 267 253 243 250 247 250 235 237 242 243 243 265 280 271 261 248 240 233 242 247 257 276 279 273 280 291 301 313 327 330 337 326 328 331 332 334 337 337 335
276 271 271 270 267 269 269 261 255 242 230 227 239 244 245 251 271 284 290 297 287 248 237 245 254 256 269 270 287 283 281 301 304 319 347 328 337 327 322 323 333 336 335
276 271 268 273 272 279 280 275 274 250 222 233 242 236 238 257 268 266 295 306 316 307 282 260 250 254 257 254 257 263 269 283 274 270 332 309 323 324 321 326 329 326 329
278 270 263 264 267 283 286 271 280 237 215 230 241 235 209 218 251 253 278 312 302 299 285 274 256 258 258 246 230 232 245 288 303 304 352 298 309 315 318 318 321 319 325
268 265 268 263 260 282 284 270 266 226 210 234 241 235 212 212 301 310 286 287 302 310 321 308 290 282 289 279 266 186 165 150 302 309 337 243 291 316 312 307 323 330 332
250 251 260 256 247 269 291 281 260 225 212 236 259 244 232 249 292 310 276 231 272 293 325 336 336 334 332 342 344 216 199 214 270 282 259 276 282 330 324 315 326 328 327